A/2019 O2

Japanese version
Home page
Updated on August 31, 2019

---------------------------------------------------------------------

* Profile

Discovery Date July 24, 2019
Magnitude 20.5 mag
Discoverer Pan-STARRS 1 telescope (Haleakala)

* Orbital Elements

T 2023 Apr. 21.34353 TT                                 Williams
q   9.6989247            (2000.0)            P               Q
z  +0.0203533      Peri.  129.76460     -0.39212485     -0.53835710
                   Node    48.34525     -0.77066798     -0.25051138
e   0.8025953      Incl.   93.29418     +0.50230366     -0.80462145
H    9.5
From 42 observations 2019 July 24-Aug. 11.

* Magnitudes Graph

        H = 9.5  G = 0.15

---------------------------------------------------------------------

The orbital elements are published on M.P.E.C. 2019-Q135.
The magnitudes graphs are made with Comet for Windows.

---------------------------------------------------------------------

Copyright(C) Seiichi Yoshida (comet@aerith.net). All rights reserved.